Weather History for KMAN - December, 2013

Change the Weather History Date:

Tuesday, December 24, 2013

  Actual Average (KBOI) Record (KBOI)
Temperature  
Mean Temperature 26 °F 30 °F  
Max Temperature 37 °F 36 °F 59 °F (1885)
Min Temperature 15 °F 23 °F -20 °F (1990)
Degree Days  
Heating Degree Days 39 35  
Month to date heating degree days 813  
Since 1 July heating degree days 2067  
Cooling Degree Days 0 0  
Month to date cooling degree days 0  
Year to date cooling degree days 942  
Moisture  
Dew Point 25 °F    
Average Humidity 90    
Maximum Humidity 100    
Minimum Humidity 65    
Precipitation  
Precipitation 0.00 in 0.05 in 0.54 in (1980)
Month to date precipitation 1.20  
Year to date precipitation 11.38  
Snow  
Snow 0.00 in 0.20 in 6.70 in (1983)
Month to date snowfall 5.2  
Since 1 July snowfall 7.9  
Snow Depth -    
Sea Level Pressure  
Sea Level Pressure 30.51 in    
Wind  
Wind Speed 3 mph (NNW)    
Max Wind Speed 9 mph    
Max Gust Speed -    
Visibility 9 miles    
Events      
T = Trace of Precipitation, MM = Missing Value Source: NWS Daily Summary

Daily Weather History Graph

Daily Weather History Graph

Search for Another Location

Airport or City:

Trip Planner

Search our weather history database for the weather conditions in past years. The results will help you decide how hot, cold, wet, or windy it might be!

Date:

Astronomy

Dec. 24, 2013 Rise Set
Actual Time 8:17 AM MST 5:14 PM MST
Civil Twilight 7:44 AM MST 5:47 PM MST
Nautical Twilight 7:08 AM MST 6:23 PM MST
Astronomical Twilight 6:33 AM MST 6:58 PM MST
Moon No Moon Rise 12:01 PM MST (12/24)
Length of Visible Light 10h 02m
Length of Day
8h 56m
Waning Gibbous, 58% of the Moon is Illuminated
Dec 24
Waning Gibbous
Dec 25
Last Quarter
Jan 1
New
Jan 7
First Quarter
Jan 15
Full

Hourly Weather History & Observations

Time (MST) Temp. Windchill Dew Point Humidity Pressure Visibility Wind Dir Wind Speed Gust Speed Precip Events Conditions
12:15 AM 33.8 °F - 33.8 °F 100% 30.34 in 3.0 mi North - - N/A   Mostly Cloudy
12:35 AM 32.0 °F - 32.0 °F 100% 30.35 in 3.0 mi North - - N/A   Partly Cloudy
12:55 AM 32.0 °F - 32.0 °F 100% 30.36 in 2.5 mi North - - N/A   Partly Cloudy
1:15 AM 32.0 °F - 32.0 °F 100% 30.36 in 3.0 mi North - - N/A   Clear
1:35 AM 32.0 °F 28.7 °F 32.0 °F 100% 30.38 in 3.0 mi North 3.5 mph - N/A   Clear
1:55 AM 32.0 °F 26.4 °F 32.0 °F 100% 30.38 in 3.0 mi NW 5.8 mph - N/A   Clear
2:15 AM 32.0 °F 25.6 °F 32.0 °F 100% 30.39 in 3.0 mi NW 6.9 mph - N/A   Clear
2:35 AM 32.0 °F 24.2 °F 32.0 °F 100% 30.41 in 4.0 mi NW 9.2 mph - N/A   Clear
2:55 AM 32.0 °F 26.4 °F 32.0 °F 100% 30.41 in 7.0 mi WNW 5.8 mph - N/A   Clear
3:15 AM 32.0 °F 27.5 °F 32.0 °F 100% 30.42 in 5.0 mi West 4.6 mph - N/A   Clear
3:35 AM 30.2 °F 25.4 °F 30.2 °F 100% 30.44 in 8.0 mi NW 4.6 mph - N/A   Clear
3:55 AM 30.2 °F 23.4 °F 30.2 °F 100% 30.44 in 8.0 mi NNW 6.9 mph - N/A   Clear
4:15 AM 30.2 °F 25.4 °F 28.4 °F 93% 30.45 in 10.0 mi North 4.6 mph - N/A   Clear
4:35 AM 30.2 °F 25.4 °F 26.6 °F 86% 30.46 in 10.0 mi North 4.6 mph - N/A   Clear
4:55 AM 28.4 °F - 26.6 °F 93% 30.47 in 10.0 mi Calm Calm - N/A   Clear
5:15 AM 24.8 °F - 24.8 °F 100% 30.47 in 10.0 mi Calm Calm - N/A   Clear
5:35 AM 26.6 °F 22.6 °F 26.6 °F 100% 30.47 in 10.0 mi NW 3.5 mph - N/A   Clear
5:55 AM 26.6 °F 20.0 °F 24.8 °F 93% 30.47 in 10.0 mi NW 5.8 mph - N/A   Clear
6:15 AM 24.8 °F 19.1 °F 24.8 °F 100% 30.48 in 10.0 mi West 4.6 mph - N/A   Clear
6:35 AM 28.4 °F 24.6 °F 24.8 °F 86% 30.49 in 10.0 mi WNW 3.5 mph - N/A   Clear
6:55 AM 24.8 °F - 24.8 °F 100% 30.49 in 10.0 mi Calm Calm - N/A   Clear
7:15 AM 24.8 °F - 24.8 °F 100% 30.50 in 10.0 mi Calm Calm - N/A   Clear
7:35 AM 23.0 °F - 23.0 °F 100% 30.50 in 10.0 mi Calm Calm - N/A   Clear
7:55 AM 23.0 °F - 23.0 °F 100% 30.51 in 10.0 mi Calm Calm - N/A   Clear
8:15 AM 23.0 °F - 23.0 °F 100% 30.51 in 10.0 mi Calm Calm - N/A   Clear
8:35 AM 19.4 °F 14.3 °F 19.4 °F 100% 30.52 in 10.0 mi ENE 3.5 mph - N/A   Clear
8:55 AM 21.2 °F - 21.2 °F 100% 30.53 in 10.0 mi Calm Calm - N/A   Clear
9:15 AM 19.4 °F - 19.4 °F 100% 30.54 in 10.0 mi Calm Calm - N/A   Clear
9:35 AM 23.0 °F - 23.0 °F 100% 30.54 in 10.0 mi Calm Calm - N/A   Clear
9:55 AM 23.0 °F - 23.0 °F 100% 30.55 in 7.0 mi Calm Calm - N/A   Clear
10:15 AM 24.8 °F - 24.8 °F 100% 30.56 in 9.0 mi Calm Calm - N/A   Clear
10:35 AM 28.4 °F - 24.8 °F 86% 30.57 in 10.0 mi Calm Calm - N/A   Clear
10:55 AM 32.0 °F 28.7 °F 26.6 °F 80% 30.57 in 10.0 mi WNW 3.5 mph - N/A   Clear
11:15 AM 32.0 °F 27.5 °F 24.8 °F 75% 30.57 in 10.0 mi WNW 4.6 mph - N/A   Clear
11:35 AM 32.0 °F 26.4 °F 24.8 °F 75% 30.57 in 10.0 mi WNW 5.8 mph - N/A   Clear
11:55 AM 33.8 °F 28.6 °F 24.8 °F 70% 30.57 in 10.0 mi NW 5.8 mph - N/A   Clear
12:15 PM 35.6 °F 32.8 °F 24.8 °F 65% 30.56 in 10.0 mi WNW 3.5 mph - N/A   Clear
12:35 PM 35.6 °F 29.9 °F 24.8 °F 65% 30.55 in 10.0 mi WNW 6.9 mph - N/A   Clear
12:55 PM 35.6 °F 31.7 °F 24.8 °F 65% 30.55 in 10.0 mi North 4.6 mph - N/A   Clear
1:15 PM 35.6 °F - 24.8 °F 65% 30.55 in 10.0 mi Calm Calm - N/A   Clear
1:35 PM 35.6 °F 32.8 °F 24.8 °F 65% 30.55 in 10.0 mi North 3.5 mph - N/A   Clear
1:55 PM 35.6 °F 29.9 °F 24.8 °F 65% 30.54 in 10.0 mi NE 6.9 mph - N/A   Clear
2:15 PM 35.6 °F 30.7 °F 26.6 °F 70% 30.53 in 10.0 mi NNE 5.8 mph - N/A   Clear
2:35 PM 37.4 °F - 26.6 °F 65% 30.53 in 10.0 mi Calm Calm - N/A   Clear
2:55 PM 37.4 °F - 26.6 °F 65% 30.53 in 10.0 mi Calm Calm - N/A   Clear
3:15 PM 37.4 °F - 26.6 °F 65% 30.53 in 10.0 mi Calm Calm - N/A   Clear
3:35 PM 37.4 °F - 26.6 °F 65% 30.52 in 10.0 mi Calm Calm - N/A   Clear
3:55 PM 37.4 °F - 26.6 °F 65% 30.52 in 10.0 mi Calm Calm - N/A   Clear
4:15 PM 37.4 °F - 26.6 °F 65% 30.52 in 10.0 mi Calm Calm - N/A   Clear
4:35 PM 37.4 °F 34.9 °F 26.6 °F 65% 30.52 in 10.0 mi WNW 3.5 mph - N/A   Clear
4:55 PM 37.4 °F 34.9 °F 26.6 °F 65% 30.53 in 10.0 mi NNW 3.5 mph - N/A   Clear
5:15 PM 35.6 °F 32.8 °F 26.6 °F 70% 30.54 in 10.0 mi NW 3.5 mph - N/A   Clear
5:35 PM 32.0 °F - 28.4 °F 87% 30.54 in 10.0 mi Calm Calm - N/A   Clear
5:55 PM 30.2 °F - 26.6 °F 86% 30.54 in 10.0 mi Calm Calm - N/A   Clear
6:15 PM 28.4 °F - 28.4 °F 100% 30.54 in 10.0 mi Calm Calm - N/A   Clear
6:35 PM 28.4 °F - 28.4 °F 100% 30.55 in 10.0 mi Calm Calm - N/A   Clear
6:55 PM 28.4 °F - 28.4 °F 100% 30.54 in 10.0 mi Calm Calm - N/A   Clear
7:15 PM 24.8 °F - 24.8 °F 100% 30.54 in 9.0 mi Calm Calm - N/A   Clear
7:35 PM 26.6 °F - 26.6 °F 100% 30.54 in 10.0 mi Calm Calm - N/A   Clear
7:55 PM 26.6 °F 22.6 °F 26.6 °F 100% 30.54 in 5.0 mi East 3.5 mph - N/A   Clear
8:15 PM 24.8 °F - 24.8 °F 100% 30.54 in 7.0 mi Calm Calm - N/A   Clear
8:35 PM 19.4 °F - 19.4 °F 100% 30.54 in 10.0 mi Calm Calm - N/A   Clear
8:55 PM 23.0 °F - 23.0 °F 100% 30.55 in 10.0 mi Calm Calm - N/A   Clear
9:15 PM 23.0 °F - 23.0 °F 100% 30.55 in 7.0 mi Calm Calm - N/A   Clear
9:35 PM 17.6 °F - 17.6 °F 100% 30.55 in 7.0 mi Calm Calm - N/A   Clear
9:55 PM 19.4 °F - 19.4 °F 100% 30.55 in 8.0 mi Calm Calm - N/A   Clear
10:15 PM 15.8 °F 10.2 °F 15.8 °F 100% 30.55 in 10.0 mi SE 3.5 mph - N/A   Clear
10:35 PM 15.8 °F 10.2 °F 15.8 °F 100% 30.55 in 10.0 mi SE 3.5 mph - N/A   Clear
10:55 PM 15.8 °F 10.2 °F 15.8 °F 100% 30.56 in 10.0 mi ESE 3.5 mph - N/A   Clear
11:15 PM 19.4 °F - 19.4 °F 100% 30.56 in 9.0 mi Calm Calm - N/A   Clear
11:35 PM 17.6 °F - 17.6 °F 100% 30.56 in 5.0 mi Calm Calm - N/A   Clear
11:55 PM 15.8 °F - 15.8 °F 100% 30.57 in 9.0 mi Calm Calm - N/A   Clear